Regional Weather Roundup
Issued by NWS

Home | Current Version | Previous Version | Text Only | Print | Product List | Glossary On
Versions: 1 2 3 4 5 6 7 8 9 10 11 12 13 14 15 16 17 18 19 20 21 22 23 24 25 26 27 28 29 30 31 32 33 34 35 36 37 38 39 40 41 42 43 44 45 46 47 48 49 50
000
ASUS46 KPQR 022110
RWROR

OREGON REGIONAL WEATHER ROUNDUP
NATIONAL WEATHER SERVICE PORTLAND OR
200 PM PDT MON MAY 02 2016

NOTE: "FAIR" INDICATES FEW OR NO CLOUDS BELOW 12,000 FEET WITH
NO SIGNIFICANT WEATHER AND/OR OBSTRUCTIONS TO VISIBILITY.

ORZ001>013-022200-
NORTHWEST OREGON


CITY           SKY/WX    TMP DP  RH WIND       PRES   REMARKS
ASTORIA        MOSUNNY   65  53  65 SW18G25   29.95S HAZE
NEWPORT        MOSUNNY   63  54  72 SW14      30.02F
PORTLAND       MOSUNNY   84  42  22 NE7       29.92F
VANCOUVER WA   SUNNY     82  46  28 CALM      29.92F
SCAPPOOSE      SUNNY     83  48  29 E3        29.92F
HILLSBORO      SUNNY     82  45  27 S7        29.93F
AURORA         MOSUNNY   79  51  37 VRB3      29.94F
MCMINNVILLE    SUNNY     79  52  38 W5        29.94F
SALEM          MOSUNNY   83  49  30 NW3       29.92F
CORVALLIS        N/A     82  54  36 CALM      29.95F
EUGENE         PTSUNNY   80  52  37 VRB3      29.93F
$$

ORZ021-028-022200-
SOUTHWEST OREGON


CITY           SKY/WX    TMP DP  RH WIND       PRES   REMARKS
NORTH BEND     SUNNY     64  54  68 W16       30.02R
ROSEBURG       SUNNY     83  38  20 CALM      29.92F
SEXTON SUMMIT  LGT RAIN  69  37  30 VRB5      30.06F
MEDFORD        PTSUNNY   79  39  23 NE6       29.95F
$$

ORZ014>016-041-022200-
COLUMBIA GORGE


CITY           SKY/WX    TMP DP  RH WIND       PRES   REMARKS
TROUTDALE      SUNNY     83  50  31 E9        29.91F
THE DALLES     SUNNY     84  41  21 CALM      29.95F
$$

ORZ029>031-041-044-049-050-061>064-502-503-505>511-022200-
EASTERN OREGON


CITY           SKY/WX    TMP DP  RH WIND       PRES   REMARKS
REDMOND        SUNNY     77  27  15 SE13G22   30.04F
BEND           MOSUNNY   73  28  19 SE8       30.03F
PRINEVILLE     MOSUNNY   73  27  17 S13       30.04F
KLAMATH FALLS  PTSUNNY   67  35  30 S10       30.09S
LAKEVIEW       PTSUNNY   66  36  32 S10G16    30.15S
HERMISTON      SUNNY     86  45  23 NE8       29.99F
PENDLETON      MOSUNNY   83  34  17 NE9       30.00F
JOHN DAY       PTSUNNY   71  32  23 E14       30.11F
MEACHAM        MOSUNNY   75  31  19 CALM      30.12F
LA GRANDE      SUNNY     73  37  27 SW6       30.09S
BAKER CITY     SUNNY     72  28  19 VRB3G16   30.12F
BURNS          SUNNY     71  21  15 E13G26    30.14F
ROME             N/A     70  27  20 VRB7      30.12F
ONTARIO        SUNNY     75  34  22 SE7       30.13F
$$



USA.gov is the U.S. government's official web portal to all federal, state and local government web resources and services.